Track COSMOS 1349 now! 10-day predictions COSMOS 1349 is classified as:
1 13127U 82030A 22146.86517759 .00000072 00000-0 60749-4 0 9999 2 13127 82.9297 180.3353 0030271 200.8365 331.9861 13.73836405 11769